Location: Fort Wayne
(41.1310°N, 85.1290°W)
Time: 13:54:58
(UTC-04:00)

OPAL - Visible Passes

Search period start: 26 July 2016 00:00
Search period end: 05 August 2016 00:00
Orbit: 743 x 796 km, 100.2° (Epoch: 25 July)

Date Brightness Start Highest point End Pass type
(mag) Time Alt. Az. Time Alt. Az. Time Alt. Az.
26 Jul 7.5 03:21:48 10° NNE 03:26:45 65° ESE 03:27:12 61° SE visible
26 Jul 9.3 05:02:07 10° NNW 05:05:06 16° WNW 05:07:29 12° W visible
27 Jul 8.8 02:46:53 10° NE 02:51:10 29° E 02:51:13 29° E visible
27 Jul 8.4 04:25:37 10° N 04:30:01 33° WNW 04:31:30 27° W visible
28 Jul 9.8 02:13:14 10° ENE 02:15:14 13° E 02:15:14 13° E visible
28 Jul 7.4 03:49:48 10° N 03:54:46 71° WNW 03:55:31 60° SW visible
29 Jul 7.8 03:14:27 10° NNE 03:19:18 51° ESE 03:19:31 51° ESE visible
29 Jul 9.1 04:54:18 10° NNW 04:57:48 20° WNW 04:59:49 15° W visible
30 Jul 9.1 02:39:44 10° NE 02:43:32 23° E 02:43:32 23° E visible
30 Jul 8.1 04:18:03 10° N 04:22:40 40° WNW 04:23:49 35° W visible
31 Jul 7.2 03:42:22 10° NNE 03:47:21 88° WNW 03:47:50 73° SSW visible
31 Jul 9.6 05:23:53 10° NW 05:25:27 11° NW 05:27:01 10° WNW visible
01 Aug 8.2 03:07:09 10° NNE 03:11:51 41° E 03:11:51 41° E visible
01 Aug 8.9 04:46:35 10° N 04:50:28 24° WNW 04:52:08 20° W visible
02 Aug 9.4 02:32:42 10° NE 02:35:51 19° E 02:35:51 19° E visible
02 Aug 7.8 04:10:31 10° N 04:15:17 49° WNW 04:16:08 44° W visible
03 Aug 7.4 03:34:57 10° NNE 03:39:55 75° ESE 03:40:08 74° SE visible
03 Aug 9.5 05:15:40 10° NNW 05:18:10 14° WNW 05:20:25 11° W visible
04 Aug 8.6 02:59:54 10° NE 03:04:09 33° E 03:04:09 33° E visible
04 Aug 8.6 04:38:56 10° N 04:43:08 28° WNW 04:44:26 25° W visible
